Location: Black Swamp Observatory
(41.3920°N, 84.1250°W)
Time: 13:33:09
(UTC-05:00)

N. Korean satellite - Visible Passes

Search period start: 07 December 2021 00:00
Search period end: 17 December 2021 00:00
Orbit: 446 x 495 km, 97.3° (Epoch: 06 December)

Date Brightness Start Highest point End Pass type
(mag) Time Alt. Az. Time Alt. Az. Time Alt. Az.
07 Dec 6.7 06:16:13 10° N 06:19:26 43° WNW 06:22:38 10° SW visible
08 Dec 6.6 05:47:34 10° NNE 05:50:56 71° ESE 05:54:18 10° S visible
08 Dec 9.6 17:55:32 10° SW 17:58:01 18° W 18:00:30 10° NW visible
09 Dec 8.5 05:19:22 10° NE 05:22:19 27° E 05:25:16 10° SSE visible
09 Dec 8.0 06:53:13 10° NNW 06:55:17 15° WNW 06:57:20 10° WSW visible
10 Dec 9.8 04:52:10 10° ENE 04:53:35 12° E 04:55:00 10° ESE visible
10 Dec 7.0 06:26:15 31° NW 06:26:54 34° WNW 06:30:00 10° SW visible
11 Dec 6.3 05:58:05 71° N 05:58:25 88° WNW 06:01:49 10° SSW visible
11 Dec 9.7 18:03:33 10° SW 18:05:33 15° W 18:07:33 10° WNW visible
12 Dec 8.0 05:29:42 34° E 05:29:49 35° E 05:32:57 10° SSE visible
12 Dec 8.5 07:03:49 11° W 07:03:49 11° W 07:04:13 10° W visible
12 Dec 8.5 17:33:40 10° SSW 17:36:50 33° W 17:39:58 10° NNW visible
13 Dec 9.5 05:01:15 15° E 05:01:15 15° E 05:03:09 10° SE visible
13 Dec 7.7 06:35:20 23° WSW 06:35:20 23° WSW 06:37:15 10° SW visible
14 Dec 7.0 06:06:48 42° SW 06:06:48 42° SW 06:09:13 10° SSW visible
14 Dec 10.0 18:11:47 10° WSW 18:13:02 12° W 18:14:16 10° WNW visible
15 Dec 7.9 05:38:12 34° SE 05:38:12 34° SE 05:40:31 10° S visible
15 Dec 9.0 17:41:19 10° SSW 17:44:15 26° W 17:47:11 10° NW visible
16 Dec 9.3 05:09:34 17° ESE 05:09:34 17° ESE 05:11:01 10° SE visible
16 Dec 8.4 06:43:40 14° WSW 06:43:40 14° WSW 06:44:22 10° WSW visible
